Weather History for Ainsworth, NE

Change the Weather History Date:

Wednesday, September 12, 2012

  Actual Average Record
Temperature  
Mean Temperature 58 °F -  
Max Temperature 64 °F 77 °F 95 °F (2004)
Min Temperature 48 °F 51 °F 42 °F (2000)
Degree Days  
Heating Degree Days 7    
Growing Degree Days 8 (Base 50)    
Moisture  
Dew Point 46 °F    
Average Humidity 76    
Maximum Humidity 97    
Minimum Humidity 29    
Precipitation  
Precipitation 0.23 in - - ()
Sea Level Pressure  
Sea Level Pressure 30.22 in    
Wind  
Wind Speed 10 mph (NE)    
Max Wind Speed 17 mph    
Max Gust Speed 28 mph    
Visibility 10 miles    
Events Rain    
Averages and records for this station are not official NWS values.
T = Trace of Precipitation, MM = Missing Value Source: NWS Daily Summary

Daily Weather History Graph

Daily Weather History Graph

Search for Another Location

Airport:

Trip Planner

Search our weather history database for the weather conditions in past years. The results will help you decide how hot, cold, wet, or windy it might be!

Date:

Astronomy

Sep. 12, 2012 Rise Set
Actual Time 7:17 AM CDT 7:54 PM CDT
Civil Twilight 6:48 AM CDT 8:22 PM CDT
Nautical Twilight 6:15 AM CDT 8:55 PM CDT
Astronomical Twilight 5:40 AM CDT 9:30 PM CDT
Moon 3:32 AM CDT (9/12) 5:45 PM CDT (9/12)
Length of Visible Light 13h 33m
Length of Day
12h 36m
Waning Crescent, 13% of the Moon is Illuminated
Sep 12
Waning Crescent
Sep 15
New
Sep 22
First Quarter
Sep 29
Full
Oct 8
Last Quarter

Hourly Weather History & Observations

Time (CDT) Temp. Dew Point Humidity Pressure Visibility Wind Dir Wind Speed Gust Speed Precip Events Conditions
12:15 AM 67.3 °F 34.0 °F 29% 30.03 in 10.0 mi NNE 16.1 mph 25.3 mph N/A   Scattered Clouds
12:35 AM 66.6 °F 34.0 °F 30% 30.05 in 10.0 mi North 17.3 mph 27.6 mph N/A   Scattered Clouds
12:55 AM 64.4 °F 35.8 °F 35% 30.05 in 10.0 mi NNE 15.0 mph 27.6 mph N/A   Scattered Clouds
1:15 AM 63.5 °F 38.5 °F 40% 30.05 in 10.0 mi North 15.0 mph 23.0 mph N/A   Scattered Clouds
1:35 AM 62.6 °F 39.7 °F 43% 30.06 in 10.0 mi North 16.1 mph 21.9 mph N/A   Clear
1:55 AM 61.7 °F 40.3 °F 45% 30.08 in 10.0 mi North 15.0 mph 20.7 mph N/A   Clear
2:15 AM 61.0 °F 40.3 °F 46% 30.09 in 10.0 mi NNE 10.4 mph - N/A   Scattered Clouds
2:35 AM 60.4 °F 39.6 °F 46% 30.09 in 10.0 mi NNE 13.8 mph 20.7 mph N/A   Scattered Clouds
2:55 AM 59.9 °F 39.0 °F 46% 30.08 in 10.0 mi NE 16.1 mph 20.7 mph N/A   Clear
3:15 AM 59.2 °F 37.9 °F 45% 30.08 in 10.0 mi NE 10.4 mph 19.6 mph N/A   Clear
3:35 AM 59.0 °F 37.2 °F 44% 30.08 in 10.0 mi NE 11.5 mph - N/A   Clear
3:55 AM 59.0 °F 36.9 °F 44% 30.09 in 10.0 mi NNE 12.7 mph 18.4 mph N/A   Mostly Cloudy
4:15 AM 58.6 °F 36.3 °F 43% 30.09 in 10.0 mi NNE 16.1 mph 19.6 mph N/A   Overcast
4:35 AM 58.1 °F 35.6 °F 43% 30.10 in 10.0 mi NNE 11.5 mph 23.0 mph N/A   Overcast
4:55 AM 57.0 °F 37.8 °F 49% 30.10 in 10.0 mi NNE 12.7 mph - N/A Rain Light Rain
5:15 AM 54.9 °F 40.6 °F 59% 30.10 in 10.0 mi NE 11.5 mph - N/A Rain Light Rain
5:35 AM 53.4 °F 43.0 °F 68% 30.12 in 10.0 mi NNE 9.2 mph - N/A Rain Light Rain
5:55 AM 52.2 °F 44.2 °F 74% 30.14 in 10.0 mi NNE 8.1 mph - N/A   Drizzle
6:15 AM 51.8 °F 44.8 °F 77% 30.16 in 10.0 mi NE 4.6 mph - N/A Rain Rain
6:35 AM 51.3 °F 45.7 °F 81% 30.16 in 10.0 mi NE 8.1 mph - 0.01 in Rain Rain
6:55 AM 50.4 °F 46.0 °F 85% 30.15 in 10.0 mi NNE 6.9 mph - 0.03 in Rain Rain
7:15 AM 50.0 °F 46.4 °F 87% 30.17 in 10.0 mi NNE 5.8 mph - 0.01 in Rain Rain
7:35 AM 50.0 °F 46.9 °F 89% 30.18 in 10.0 mi NNE 4.6 mph - 0.02 in Rain Rain
7:55 AM 50.0 °F 47.3 °F 90% 30.18 in 7.0 mi NE 6.9 mph - 0.04 in Rain Rain
8:15 AM 49.6 °F 48.0 °F 94% 30.18 in 5.0 mi East 6.9 mph - 0.03 in Rain Rain
8:35 AM 50.0 °F 48.6 °F 95% 30.19 in 10.0 mi NNE 6.9 mph - 0.05 in Rain Light Rain
8:55 AM 50.0 °F 48.2 °F 94% 30.18 in 10.0 mi ENE 5.8 mph - 0.05 in Rain Rain
9:15 AM 50.0 °F 48.4 °F 94% 30.20 in 10.0 mi East 6.9 mph - 0.01 in Rain Light Rain
9:35 AM 50.0 °F 48.9 °F 96% 30.19 in 7.0 mi East 10.4 mph - 0.03 in Rain Light Rain
9:55 AM 50.2 °F 49.3 °F 97% 30.23 in 7.0 mi East 5.8 mph - 0.06 in Rain Light Rain
10:15 AM 50.5 °F 49.6 °F 97% 30.23 in 5.0 mi NE 8.1 mph - 0.04 in Rain Rain
10:35 AM 50.9 °F 50.2 °F 97% 30.26 in 10.0 mi NNE 3.5 mph - 0.05 in Rain Rain
10:55 AM 51.3 °F 50.5 °F 97% 30.26 in 10.0 mi ENE 5.8 mph - 0.05 in   Clear
11:15 AM 52.0 °F 50.9 °F 96% 30.26 in 10.0 mi ENE 6.9 mph - N/A   Clear
11:35 AM 52.7 °F 51.4 °F 95% 30.26 in 10.0 mi ENE 6.9 mph - N/A   Clear
11:55 AM 52.9 °F 51.4 °F 95% 30.26 in 10.0 mi NE 10.4 mph - N/A   Scattered Clouds
12:15 PM 53.1 °F 51.1 °F 93% 30.28 in 10.0 mi NE 9.2 mph - N/A   Scattered Clouds
12:35 PM 53.8 °F 51.1 °F 91% 30.26 in 10.0 mi NE 11.5 mph - N/A   Scattered Clouds
12:55 PM 55.0 °F 51.8 °F 89% 30.25 in 10.0 mi ENE 9.2 mph 16.1 mph N/A   Scattered Clouds
1:15 PM 56.5 °F 50.9 °F 82% 30.26 in 10.0 mi ENE 9.2 mph 16.1 mph N/A   Mostly Cloudy
1:35 PM 56.7 °F 50.5 °F 80% 30.26 in 10.0 mi NE 10.4 mph - N/A   Mostly Cloudy
1:55 PM 57.2 °F 50.7 °F 79% 30.27 in 10.0 mi ENE 6.9 mph - N/A   Mostly Cloudy
2:15 PM 57.0 °F 49.8 °F 77% 30.27 in 10.0 mi NE 11.5 mph - N/A   Mostly Cloudy
2:35 PM 57.2 °F 49.1 °F 74% 30.28 in 10.0 mi ENE 5.8 mph - N/A   Scattered Clouds
2:55 PM 57.2 °F 49.1 °F 74% 30.29 in 10.0 mi East 5.8 mph - N/A   Mostly Cloudy
3:15 PM 57.2 °F 49.5 °F 75% 30.29 in 10.0 mi East 5.8 mph - N/A   Mostly Cloudy
3:35 PM 57.2 °F 49.1 °F 74% 30.29 in 10.0 mi ENE 4.6 mph - N/A   Mostly Cloudy
3:55 PM 57.2 °F 49.1 °F 74% 30.29 in 10.0 mi East 6.9 mph - N/A   Scattered Clouds
4:15 PM 56.8 °F 49.3 °F 76% 30.29 in 10.0 mi East 3.5 mph - N/A   Clear
4:35 PM 57.2 °F 48.2 °F 72% 30.29 in 10.0 mi East 3.5 mph - N/A   Scattered Clouds
4:55 PM 56.8 °F 48.6 °F 74% 30.29 in 10.0 mi ESE 4.6 mph - N/A   Scattered Clouds
5:15 PM 56.8 °F 48.7 °F 74% 30.29 in 10.0 mi ESE 4.6 mph - N/A   Clear
5:35 PM 56.7 °F 48.7 °F 75% 30.30 in 10.0 mi ESE 4.6 mph - N/A   Scattered Clouds
5:55 PM 56.5 °F 48.7 °F 75% 30.30 in 10.0 mi ESE 4.6 mph - N/A   Clear
6:15 PM 56.5 °F 48.6 °F 75% 30.30 in 10.0 mi SE 4.6 mph - N/A   Clear
6:35 PM 56.5 °F 48.4 °F 74% 30.31 in 10.0 mi SSE 4.6 mph - N/A   Clear
6:55 PM 56.3 °F 48.2 °F 74% 30.31 in 10.0 mi SE 3.5 mph - N/A   Clear
7:15 PM 55.9 °F 48.2 °F 75% 30.31 in 10.0 mi Calm Calm - N/A   Clear
7:35 PM 55.6 °F 48.4 °F 77% 30.32 in 10.0 mi Calm Calm - N/A   Clear
7:55 PM 55.0 °F 49.1 °F 80% 30.32 in 10.0 mi Calm Calm - N/A   Clear
8:15 PM 53.8 °F 49.3 °F 85% 30.32 in 10.0 mi South 3.5 mph - N/A   Clear
8:35 PM 52.0 °F 48.4 °F 88% 30.32 in 10.0 mi Calm Calm - N/A   Clear
8:55 PM 51.3 °F 49.1 °F 92% 30.32 in 10.0 mi SSW 3.5 mph - N/A   Clear
9:15 PM 50.7 °F 48.9 °F 94% 30.33 in 10.0 mi SW 3.5 mph - N/A   Clear
9:35 PM 50.2 °F 48.6 °F 94% 30.33 in 10.0 mi SSW 3.5 mph - N/A   Clear
9:55 PM 49.3 °F 48.4 °F 97% 30.33 in 10.0 mi SW 3.5 mph - N/A   Clear
10:15 PM 49.8 °F 47.7 °F 92% 30.33 in 10.0 mi SW 3.5 mph - N/A   Clear
10:35 PM 49.1 °F 47.7 °F 95% 30.33 in 10.0 mi Calm Calm - N/A   Clear
10:55 PM 49.5 °F 47.7 °F 94% 30.33 in 10.0 mi SW 4.6 mph - N/A   Clear
11:15 PM 49.3 °F 47.8 °F 95% 30.34 in 10.0 mi WSW 4.6 mph - N/A   Clear
11:35 PM 49.3 °F 47.3 °F 93% 30.34 in 10.0 mi West 6.9 mph - N/A   Clear
11:55 PM 48.2 °F 46.8 °F 95% 30.34 in 10.0 mi WSW 5.8 mph - N/A   Clear